Location: Hains Lake
(37.8540°N, 99.8578°W)
Time: 01:56:25
(UTC+00:00)

ISS - Pass Details

Date: 11 March 2021
Orbit: 418 x 422 km, 51.6° (Epoch: 11 April)

Event Time Altitude Azimuth Distance (km) Brightness Sun altitude
Exits shadow 11:45:41 18° 314° (NW) 1,088 -2.0 -14.7°
Maximum altitude 11:48:01 77° 39° (NE) 433 -3.7 -14.3°
Drops below altitude 10° 11:51:22 10° 126° (SE) 1,489 -0.2 -13.6°
Sets 11:53:27 0° 128° (SE) 2,350 0.8 -13.2°
